Theta_e
286 287 287 288 289 289 289 289 286 282 283 287 288 290 293 294 293 294 295 296 298 301 304 305 311 314 314 315 316 319 321 323 324 324 324 323 322 322
286 286 287 287 288 289 289 289 288 286 283 288 284 282 287 289 290 290 292 292 295 298 299 302 306 311 312 313 314 314 316 318 324 323 323 323 322 322
286 286 286 287 287 287 288 288 288 288 284 285 288 287 284 285 287 288 290 289 290 293 297 300 301 304 309 310 311 312 313 315 320 322 322 321 322 321
285 285 285 287 287 287 287 287 287 286 285 284 285 286 285 286 286 286 287 286 286 290 294 295 297 299 301 304 307 307 307 309 312 314 317 319 320 320
286 286 286 286 285 286 286 286 286 286 287 285 284 286 285 286 287 286 285 285 285 288 289 291 293 295 297 298 301 303 302 305 306 307 311 314 316 318
285 287 287 286 286 286 286 285 286 286 285 284 284 284 285 287 285 286 286 285 285 285 286 286 290 291 295 296 296 297 299 301 303 303 303 305 308 313
284 285 286 286 286 287 286 286 285 285 284 283 283 283 285 286 284 285 285 284 283 283 283 282 284 287 289 293 293 296 297 300 301 301 301 301 302 304
282 284 285 285 286 288 288 289 289 285 284 283 283 282 284 285 285 285 285 283 283 283 281 280 281 282 284 290 294 296 298 299 300 300 300 300 300 301
279 281 283 284 284 285 287 288 288 289 289 287 285 285 285 286 287 286 283 282 280 279 280 278 278 279 280 288 294 294 294 294 295 293 294 295 293 292
277 281 281 283 284 285 285 285 285 285 284 283 284 285 286 287 287 287 284 278 279 279 279 276 277 276 279 279 292 293 293 293 293 292 292 292 291 290
275 278 280 283 284 285 281 283 281 280 282 283 284 284 284 288 289 283 281 280 278 276 278 277 276 277 277 276 278 291 292 292 291 291 290 290 289 288
272 274 281 283 284 284 276 277 272 276 277 276 276 277 277 277 280 281 283 283 277 277 277 277 275 276 276 277 275 277 284 290 290 290 289 289 287 283
272 275 278 282 283 283 282 280 278 274 277 276 275 274 273 273 273 273 275 281 278 276 278 278 275 274 273 274 273 274 276 279 283 285 287 287 285 282
271 273 275 281 280 281 280 280 279 276 275 274 272 270 270 271 272 272 272 272 273 275 277 278 275 275 273 272 272 273 273 274 276 277 282 285 285 284
275 277 279 278 277 272 278 277 270 269 268 268 269 266 269 271 272 272 274 274 272 271 273 276 276 275 275 272 271 271 273 271 273 274 274 274 274 275
272 268 274 274 275 272 267 268 267 266 265 263 263 264 265 266 268 269 269 269 270 270 270 273 273 273 271 270 272 269 269 271 269 269 269 268 269 269
262 261 263 263 264 265 263 263 264 264 263 261 261 262 263 263 264 263 263 264 266 266 266 268 270 270 268 268 266 266 265 264 265 264 263 262 263 265
261 260 261 261 261 259 259 260 259 260 259 259 258 259 259 260 259 261 262 261 263 261 264 264 264 265 263 266 269 260 259 258 260 260 259 258 257 259
260 258 259 259 259 258 257 257 259 257 254 257 257 257 258 258 258 258 260 259 258 256 256 255 257 257 257 256 260 272 259 255 255 256 257 257 256 257
258 258 259 258 258 258 258 257 256 256 256 256 256 254 254 255 256 255 256 255 254 253 255 255 256 254 258 260 258 260 269 257 255 252 255 253 259 269
261 260 261 260 259 257 255 254 254 255 254 254 254 254 253 254 253 252 254 255 254 251 254 256 258 259 254 254 259 256 258 270 263 257 252 254 252 252
261 260 258 257 257 256 255 254 254 254 254 254 254 253 253 254 255 253 253 255 253 253 254 255 255 255 257 259 254 254 256 259 268 271 271 266 258 255
265 263 263 270 270 267 262 256 256 257 256 255 255 254 252 256 253 255 253 252 254 253 253 256 256 257 256 256 257 255 256 257 259 262 261 269 270 271
Wind_Speed
9 9 8 8 8 8 9 8 10 14 12 4 4 2 5 6 8 8 8 13 21 21 21 20 18 13 11 12 13 20 26 26 29 36 35 35 36 35
7 10 10 8 9 8 8 8 9 12 14 6 4 4 4 6 10 8 9 16 17 15 17 16 17 16 16 14 8 16 22 24 34 36 36 36 35 34
10 10 12 11 8 8 7 7 9 8 12 7 3 7 6 9 8 6 5 7 8 10 15 13 14 13 9 10 9 10 11 16 25 32 38 37 37 33
10 10 12 8 10 9 7 8 9 8 9 14 8 7 9 10 9 11 6 3 4 7 11 13 14 11 12 11 7 1 1 5 16 15 17 36 30 32
11 10 11 9 10 7 8 7 7 8 7 8 7 5 6 9 10 5 3 3 3 8 10 11 13 14 12 11 11 11 5 5 5 7 18 23 26 35
10 8 7 8 9 10 8 8 7 6 7 6 7 9 8 8 3 6 7 1 2 2 6 10 14 14 17 16 9 10 10 10 8 3 4 7 13 28
8 7 7 9 14 15 8 7 6 6 6 6 5 7 8 5 4 2 2 1 1 2 3 6 6 7 9 14 10 9 8 13 12 8 8 8 8 10
8 8 8 9 11 15 17 18 13 7 7 5 7 8 9 6 3 3 1 1 0 3 2 6 6 6 8 8 20 21 19 15 13 4 7 13 19 16
5 7 9 7 9 9 11 12 11 12 14 9 9 9 10 8 6 7 2 1 1 2 1 3 6 7 8 8 20 24 28 29 27 30 30 34 33 35
6 7 8 9 11 11 10 4 3 2 4 4 6 9 11 10 7 5 2 4 2 2 3 3 4 5 7 8 21 23 26 29 30 31 32 35 35 35
6 7 9 8 17 19 8 6 4 3 5 9 11 13 15 16 9 4 3 3 1 2 3 3 1 2 5 8 10 20 24 27 29 30 32 33 35 32
5 6 11 13 16 15 6 6 4 4 6 6 6 9 12 12 14 4 4 3 3 2 1 3 0 2 4 4 7 8 7 22 24 26 26 26 25 12
3 4 5 15 15 14 12 5 5 4 5 5 5 5 6 7 8 8 8 2 2 2 4 3 2 2 4 3 3 6 6 7 8 13 22 23 22 16
3 3 4 12 11 13 9 12 10 6 3 4 4 5 6 7 6 6 7 8 7 7 5 3 4 3 4 2 3 3 6 7 6 6 6 16 21 20
2 5 8 10 11 7 13 13 8 4 4 4 4 2 3 3 5 4 5 5 10 10 8 5 4 4 3 3 4 1 3 5 6 6 7 7 6 6
3 3 5 6 9 7 4 7 4 3 2 2 2 3 3 3 3 3 3 5 5 6 11 12 8 4 4 5 4 3 3 3 3 6 6 7 8 7
2 3 3 3 3 4 3 4 4 4 4 3 2 2 3 3 3 3 2 3 4 2 4 7 10 12 8 4 5 4 2 3 3 2 5 5 4 3
4 2 1 1 1 2 2 3 3 3 2 2 3 3 3 3 3 4 4 4 6 3 2 2 2 2 4 10 12 3 3 3 1 3 3 4 1 3
2 1 2 1 1 2 2 2 2 2 3 2 2 2 2 3 4 3 3 3 3 2 1 1 3 3 4 3 4 10 4 1 2 3 3 3 4 2
2 3 3 3 2 2 1 1 1 2 2 2 2 1 2 2 2 2 3 3 2 3 4 4 4 2 5 6 5 2 7 4 3 2 2 2 2 8
3 2 3 3 3 2 2 1 0 1 1 1 2 2 1 1 1 1 2 3 4 2 2 2 3 4 1 2 5 3 4 8 4 4 4 4 2 3
3 3 3 3 3 3 2 2 0 1 0 0 1 1 1 1 1 2 2 2 0 2 2 1 3 2 4 4 2 2 2 4 7 12 10 6 5 3
4 4 4 4 3 3 3 2 2 1 1 2 1 1 1 0 1 1 2 1 3 3 1 1 2 3 2 3 3 2 2 2 3 2 3 11 7 4
Wind_Direction
270 273 271 272 270 271 270 270 282 293 289 286 298 307 303 312 307 304 307 307 311 309 310 313 292 281 279 271 293 289 273 259 214 215 211 205 206 206
277 273 269 268 267 264 268 270 268 277 283 294 291 286 318 307 297 302 307 293 291 306 311 320 318 265 252 241 244 283 272 269 226 212 212 207 209 208
275 271 270 269 267 267 267 264 278 272 279 293 309 312 299 296 304 295 283 289 299 313 320 326 315 317 254 233 236 252 275 283 255 228 211 208 203 207
283 275 274 276 272 271 267 264 267 265 283 289 295 293 282 290 291 287 282 260 280 331 339 347 359 341 316 305 283 200 45 283 268 272 249 208 200 214
291 283 282 281 282 283 277 269 267 271 270 282 292 285 287 294 289 265 257 269 294 9 347 359 17 4 357 331 293 294 302 251 208 263 242 233 225 220
309 299 288 277 275 275 266 266 269 275 266 278 290 288 295 290 256 277 278 189 303 13 351 6 15 2 12 359 318 258 241 256 257 212 248 263 251 225
308 311 300 289 277 269 271 267 255 258 264 266 277 293 294 303 289 325 288 352 6 13 335 20 356 355 8 17 11 6 253 237 238 229 201 218 237 254
327 326 324 309 302 299 289 275 260 254 261 261 271 273 286 300 263 271 262 255 237 14 19 15 348 10 1 24 40 55 60 69 70 88 215 126 87 96
327 328 332 332 323 308 296 283 280 279 274 283 280 281 283 277 280 290 237 59 84 3 36 33 346 26 1 21 56 69 74 77 83 79 80 90 88 87
322 328 328 332 339 345 327 271 265 313 8 338 305 292 267 266 253 262 151 105 87 46 2 77 339 13 5 5 46 65 74 83 84 88 88 91 93 91
327 331 334 346 358 6 360 11 41 10 338 338 347 355 359 0 219 133 153 142 91 22 17 99 303 52 30 15 6 53 74 81 88 89 90 91 89 88
314 320 349 1 5 13 18 6 3 340 348 358 3 6 5 357 23 2 159 167 129 125 166 97 49 343 61 10 5 14 32 74 83 85 85 89 93 91
320 331 339 5 1 11 16 6 9 336 360 15 13 3 9 25 8 4 8 45 120 98 179 126 143 81 56 102 4 8 16 33 58 82 92 95 96 101
305 300 314 9 9 13 18 21 21 13 360 56 40 17 5 5 14 25 32 54 42 51 47 38 112 143 131 107 96 1 25 18 47 50 78 93 96 96
302 344 10 19 28 22 29 35 31 21 23 13 38 359 336 341 352 352 26 41 54 44 23 25 91 87 47 84 125 98 87 15 29 61 62 60 62 69
356 339 16 34 44 46 4 21 16 32 45 97 330 313 325 352 30 22 36 9 45 35 27 34 40 57 82 68 99 92 30 91 33 52 72 53 45 46
87 19 13 11 4 6 1 14 12 15 30 354 44 2 352 359 1 347 32 27 81 56 41 35 49 65 62 86 82 64 83 67 44 78 72 85 41 33
56 74 343 351 2 322 331 327 2 360 8 6 10 12 10 7 14 15 25 42 91 36 70 26 352 61 45 47 66 75 35 88 57 47 67 96 37 326
116 186 204 212 265 303 322 345 332 330 313 8 40 34 21 24 36 20 77 46 39 64 45 315 14 84 69 73 303 50 120 84 71 51 38 61 133 269
126 172 208 211 217 212 218 221 276 329 16 11 29 22 36 105 53 53 13 100 58 355 358 357 43 59 126 172 154 273 78 107 101 113 102 23 10 58
190 205 202 197 209 203 211 227 203 308 314 338 342 0 6 81 71 46 96 88 122 111 80 6 317 337 99 35 54 4 343 67 125 142 158 98 79 15
180 188 199 199 208 194 182 179 230 316 314 268 277 297 346 10 106 154 159 131 46 141 119 330 340 22 47 81 125 120 49 349 62 99 99 116 151 140
185 180 184 204 187 180 167 164 177 242 238 248 256 260 177 210 155 115 126 96 138 108 99 63 348 50 78 86 113 112 90 45 27 44 41 24 45 69